Regional Weather Roundup
Issued by NWS Sioux Falls, SD

Home | Current Version | Previous Version | Text Only | Print | Product List | Glossary Off
Versions: 1 2 3 4 5 6 7 8 9 10 11 12 13 14 15 16 17 18 19 20 21 22 23 24 25 26 27 28 29 30 31 32 33 34 35 36 37 38 39 40 41 42 43 44 45 46 47 48 49 50

000
ASUS43 KFSD 022210
RWRFSD

WEATHER ROUNDUP FOR SE SOUTH DAKOTA/SW MINNESOTA/NW IOWA
NATIONAL WEATHER SERVICE SIOUX FALLS SD
500 PM CDT SUN AUG 02 2015

NOTE: "FAIR" INDICATES FEW OR NO CLOUDS BELOW 12,000 FEET WITH NO
SIGNIFICANT WEATHER AND OR OBSTRUCTIONS TO VISIBILITY.


SDZ038>040-050-052>070-022300-
SOUTHEAST SOUTH DAKOTA

CITY           SKY/WX    TMP DP  RH WIND       PRES   REMARKS
BROOKINGS      SUNNY     79  57  47 N16       29.87S
CHAMBERLAIN    SUNNY     84  59  43 NE6       29.89F
HURON          SUNNY     83  59  44 N14G21    29.86S
MADISON        FAIR      81  61  50 N10       29.87S
MITCHELL       SUNNY     84  59  42 N13G20    29.86F
SIOUX FALLS    SUNNY     85  62  46 NW10      29.84S
WINNER         FAIR      89  57  33 NE9       29.91S
YANKTON        SUNNY     86  64  48 N10       29.82F
$$

MNZ071-072-080-081-089-090-097-098-022300-
SOUTHWEST MINNESOTA

CITY           SKY/WX    TMP DP  RH WIND       PRES   REMARKS
FAIRMONT       SUNNY     82  61  47 NW17      29.78R
JACKSON        SUNNY     82  61  47 NW16      29.82S
LUVERNE        SUNNY     86  59  39 NW10      29.84S
MARSHALL       SUNNY     79  57  47 N14G22    29.85S
MONTEVIDEO     MOSUNNY   82  61  47 N15G22    29.84S
PIPESTONE      SUNNY     82  55  39 N13       29.86R
REDWOOD FALLS  SUNNY     81  58  45 N15G26    29.80R
TRACY          SUNNY     79  63  57 N14G24    29.83S
WINDOM         SUNNY     81  61  50 NW16      29.82R
WORTHINGTON    SUNNY     82  63  51 N12       29.83S
$$

IAZ001>003-012>014-020>022-031-032-NEZ013-014-SDZ071-022300-
NORTHWEST IOWA

CITY           SKY/WX    TMP DP  RH WIND       PRES   REMARKS
CHEROKEE       SUNNY     85  71  62 N5        29.82S
DENISON        SUNNY     86  73  66 NW9       29.80R
ESTHERVILLE    SUNNY     84  64  50 N13       29.80S
LE MARS        SUNNY     86  70  58 N8        29.83S
ORANGE CITY    SUNNY     84  68  58 N8        29.83F
SHELDON        SUNNY     82  66  57 NW9       29.82S
SIOUX CITY     NOT AVBL
SPENCER        SUNNY     88  60  38 NW16      29.81S
STORM LAKE     SUNNY     84  72  65 NW10      29.83F
$$

ABBREVIATIONS USED IN REMARKS
   TC - TEMPERATURE IN CELSIUS
  WCI - WIND CHILL INDEX
   HX - HEAT INDEX
  VSB - VISIBILITY



USA.gov is the U.S. government's official web portal to all federal, state and local government web resources and services.